Weather History for KHBI - December, 2012

Change the Weather History Date:

Wednesday, December 5, 2012

  Actual Average Record
Temperature  
Mean Temperature 54 °F -  
Max Temperature 61 °F 56 °F 75 °F (1982)
Min Temperature 48 °F 33 °F 19 °F (1969)
Degree Days  
Heating Degree Days 10    
Growing Degree Days 4 (Base 50)    
Moisture  
Dew Point 47 °F    
Average Humidity 71    
Maximum Humidity 94    
Minimum Humidity 38    
Precipitation  
Precipitation 0.01 in - - ()
Sea Level Pressure  
Sea Level Pressure 30.19 in    
Wind  
Wind Speed 6 mph (West)    
Max Wind Speed 13 mph    
Max Gust Speed 17 mph    
Visibility 10 miles    
Events Rain    
Averages and records for this station are not official NWS values.
T = Trace of Precipitation, MM = Missing Value Source: NWS Daily Summary

Daily Weather History Graph

Daily Weather History Graph

Search for Another Location

Airport or City:

Trip Planner

Search our weather history database for the weather conditions in past years. The results will help you decide how hot, cold, wet, or windy it might be!

Date:

Astronomy

Dec. 05, 2012 Rise Set
Actual Time 7:14 AM EST 5:06 PM EST
Civil Twilight 6:46 AM EST 5:34 PM EST
Nautical Twilight 6:14 AM EST 6:05 PM EST
Astronomical Twilight 5:43 AM EST 6:36 PM EST
Moon 11:43 PM EST 11:46 AM EST
Length of Visible Light 10h 47m
Length of Day
9h 51m
Waning Gibbous, 60% of the Moon is Illuminated
Dec 5
Waning Gibbous
Dec 6
Last Quarter
Dec 13
New
Dec 20
First Quarter
Dec 28
Full

Hourly Weather History & Observations

Time (EST) Temp. Dew Point Humidity Pressure Visibility Wind Dir Wind Speed Gust Speed Precip Events Conditions
12:15 AM 59.0 °F 53.6 °F 82% 30.21 in 10.0 mi SSW 6.9 mph - N/A   Clear
12:35 AM 60.8 °F 53.6 °F 77% 30.19 in 10.0 mi SSW 9.2 mph - N/A   Clear
12:55 AM 59.0 °F 53.6 °F 82% 30.19 in 10.0 mi SSW 9.2 mph - N/A   Clear
1:15 AM 59.0 °F 53.6 °F 82% 30.18 in 10.0 mi SSW 10.4 mph 17.3 mph N/A   Clear
1:35 AM 59.0 °F 53.6 °F 82% 30.18 in 10.0 mi SSW 12.7 mph 16.1 mph N/A   Clear
1:55 AM 59.0 °F 53.6 °F 82% 30.18 in 10.0 mi SW 11.5 mph 17.3 mph N/A   Clear
2:15 AM 59.0 °F 53.6 °F 82% 30.18 in 10.0 mi SW 10.4 mph 16.1 mph N/A   Scattered Clouds
2:35 AM 59.0 °F 53.6 °F 82% 30.18 in 10.0 mi SW 9.2 mph - N/A   Scattered Clouds
2:55 AM 59.0 °F 53.6 °F 82% 30.17 in 10.0 mi SW 9.2 mph - N/A   Scattered Clouds
3:15 AM 59.0 °F 53.6 °F 82% 30.17 in 10.0 mi SW 11.5 mph - N/A   Overcast
3:35 AM 59.0 °F 53.6 °F 82% 30.17 in 10.0 mi SW 8.1 mph - N/A   Overcast
3:55 AM 59.0 °F 53.6 °F 82% 30.17 in 10.0 mi SW 5.8 mph - N/A   Overcast
4:15 AM 57.2 °F 53.6 °F 88% 30.16 in 10.0 mi SW 6.9 mph - N/A   Overcast
4:55 AM 57.2 °F 53.6 °F 88% 30.16 in 10.0 mi SW 9.2 mph - N/A   Overcast
5:15 AM 57.2 °F 53.6 °F 88% 30.16 in 10.0 mi SW 8.1 mph - N/A   Overcast
5:35 AM 57.2 °F 53.6 °F 88% 30.16 in 10.0 mi SW 5.8 mph - N/A   Overcast
5:55 AM 57.2 °F 53.6 °F 88% 30.15 in 10.0 mi SW 6.9 mph - N/A   Overcast
6:15 AM 57.2 °F 53.6 °F 88% 30.16 in 10.0 mi SW 6.9 mph - N/A   Scattered Clouds
6:35 AM 57.2 °F 53.6 °F 88% 30.16 in 10.0 mi SW 8.1 mph - N/A   Scattered Clouds
6:55 AM 57.2 °F 53.6 °F 88% 30.17 in 10.0 mi SW 8.1 mph - N/A   Scattered Clouds
7:15 AM 55.4 °F 53.6 °F 94% 30.18 in 10.0 mi SW 8.1 mph - N/A   Scattered Clouds
7:35 AM 57.2 °F 53.6 °F 88% 30.18 in 10.0 mi SW 9.2 mph - N/A   Overcast
7:55 AM 57.2 °F 53.6 °F 88% 30.19 in 10.0 mi SW 8.1 mph - N/A   Mostly Cloudy
9:55 AM 59.0 °F 55.4 °F 88% 30.21 in 10.0 mi SW 4.6 mph - N/A Rain Light Rain
10:35 AM 59.4 °F 57.2 °F 93% 30.21 in 10.0 mi Calm Calm - 0.01 in Rain Light Rain
11:15 AM 59.9 °F 57.4 °F 91% 30.21 in 10.0 mi WSW 3.5 mph - N/A Rain Light Rain
11:35 AM 59.4 °F 57.4 °F 93% 30.21 in 10.0 mi WNW 3.5 mph - N/A   Clear
11:55 AM 59.5 °F 57.2 °F 92% 30.19 in 10.0 mi WNW 3.5 mph - N/A   Clear
12:15 PM 60.1 °F 57.6 °F 91% 30.19 in 10.0 mi Calm Calm - N/A Rain Light Rain
12:35 PM 60.3 °F 56.7 °F 88% 30.19 in 10.0 mi NNW 3.5 mph - N/A   Mostly Cloudy
12:55 PM 60.3 °F 56.8 °F 88% 30.19 in 10.0 mi NNW 4.6 mph - N/A   Light Drizzle
1:15 PM 60.3 °F 55.2 °F 83% 30.18 in 10.0 mi North 6.9 mph - N/A   Overcast
1:35 PM 60.1 °F 54.1 °F 81% 30.17 in 10.0 mi North 6.9 mph - N/A   Overcast
1:55 PM 60.8 °F 51.6 °F 72% 30.17 in 10.0 mi North 5.8 mph - N/A   Overcast
2:15 PM 61.2 °F 46.0 °F 58% 30.17 in 10.0 mi North 6.9 mph - N/A   Mostly Cloudy
2:35 PM 61.2 °F 41.9 °F 49% 30.16 in 10.0 mi North 6.9 mph - N/A Rain Light Rain
2:55 PM 60.3 °F 43.5 °F 54% 30.17 in 10.0 mi North 4.6 mph - N/A   Mostly Cloudy
3:15 PM 59.7 °F 44.2 °F 57% 30.17 in 10.0 mi North 5.8 mph - N/A   Overcast
3:35 PM 59.4 °F 44.8 °F 58% 30.17 in 10.0 mi North 6.9 mph - N/A   Overcast
3:55 PM 58.6 °F 46.9 °F 65% 30.18 in 10.0 mi North 4.6 mph - N/A Rain Light Rain
4:15 PM 58.5 °F 46.9 °F 66% 30.18 in 10.0 mi Calm Calm - N/A   Light Drizzle
4:35 PM 58.5 °F 46.4 °F 64% 30.19 in 10.0 mi Calm Calm - N/A   Overcast
4:55 PM 58.5 °F 42.8 °F 56% 30.19 in 10.0 mi North 5.8 mph - N/A   Overcast
5:15 PM 58.1 °F 41.4 °F 54% 30.19 in 10.0 mi North 4.6 mph - N/A   Overcast
5:35 PM 58.1 °F 40.1 °F 51% 30.20 in 10.0 mi North 3.5 mph - N/A   Overcast
5:55 PM 57.2 °F 40.8 °F 54% 30.21 in 10.0 mi North 3.5 mph - N/A   Overcast
6:15 PM 57.7 °F 38.7 °F 49% 30.21 in 10.0 mi Calm Calm - N/A   Overcast
6:35 PM 57.9 °F 38.5 °F 48% 30.21 in 10.0 mi Calm Calm - N/A   Overcast
6:55 PM 57.2 °F 39.2 °F 51% 30.21 in 10.0 mi Calm Calm - N/A   Overcast
7:15 PM 57.2 °F 38.3 °F 49% 30.22 in 10.0 mi Calm Calm - N/A   Overcast
7:35 PM 55.9 °F 40.8 °F 57% 30.22 in 10.0 mi Calm Calm - N/A   Overcast
7:55 PM 55.8 °F 41.2 °F 58% 30.23 in 10.0 mi Calm Calm - N/A   Overcast
8:15 PM 54.9 °F 41.4 °F 60% 30.23 in 10.0 mi Calm Calm - N/A   Overcast
8:35 PM 54.5 °F 40.6 °F 60% 30.23 in 10.0 mi Calm Calm - N/A   Overcast
8:55 PM 52.3 °F 44.8 °F 75% 30.23 in 10.0 mi Calm Calm - N/A   Scattered Clouds
9:15 PM 50.9 °F 39.9 °F 66% 30.23 in 10.0 mi Calm Calm - N/A   Clear
9:35 PM 48.7 °F 40.5 °F 73% 30.23 in 10.0 mi Calm Calm - N/A   Clear
9:55 PM 52.9 °F 33.1 °F 47% 30.23 in 10.0 mi NNE 3.5 mph - N/A   Clear
10:15 PM 50.4 °F 33.3 °F 52% 30.23 in 10.0 mi NNE 4.6 mph - N/A   Clear
10:35 PM 51.3 °F 30.6 °F 45% 30.23 in 10.0 mi NNE 3.5 mph - N/A   Clear
10:55 PM 50.9 °F 28.8 °F 43% 30.23 in 10.0 mi NNE 3.5 mph - N/A   Clear
11:15 PM 50.9 °F 26.6 °F 39% 30.24 in 10.0 mi NNE 3.5 mph - N/A   Clear
11:35 PM 50.5 °F 25.9 °F 38% 30.23 in 10.0 mi NNE 3.5 mph - N/A   Clear
11:55 PM 49.1 °F 26.1 °F 41% 30.24 in 10.0 mi Calm Calm - N/A   Clear